APRIZESAT 2

Last updated on Fri Dec 29 2023 00:03:02 GMT+0000 (Coordinated Universal Time)

1 28366U 04025A 23361.52301853 .00000343 00000+0 12093-3 0 9995 2 28366 98.0923 204.9324 0108256 94.6219 266.7343 14.37155936 21968
UTC large
Height (km)
Speed (km/s)
/
Latitude / Longitude
Inclination (degrees)
Orbital Period (minutes)
Azimuth
Elevation
Range (km)
Doppler Factor

Next 0 passes for location: London (51.5072 / 0.1276)

Sorry there are no passes over London.
APRIZESAT 2